User: anonymous   Login
Location: Feydey
(46.3431°N, 7.0106°E)
Time: 09:56:07
(UTC+00:00)
Language:

Cosmos 2173 Rocket - Orbit

View from above orbital plane
View from above orbital plane
View from above satellite
View from above satellite

Ground track
Ground track

The orbit data is extracted from the following two-line orbital elements,

1 21797U 91081B   21264.97160053  .00000046  00000-0  30714-4 0  9990
2 21797  82.9573 345.2064 0038835  45.2006 127.6664 13.77522870498588
Epoch (UTC): 21 September 2021 23:19:06
Eccentricity: 0.0038835
inclination: 82.9573°
perigee height: 944 km
apogee height: 1001 km
right ascension of ascending node: 345.2064°
argument of perigee: 45.2006°
revolutions per day: 13.77522870
mean anomaly at epoch: 127.6664°
orbit number at epoch: 49858

The dashed part of the orbit path shows where the satellite is in the earth's shadow,  

DLR